Year,Month,Day,Hour,Minute,Value (Times are PST for temperature in C)
2019,05,05,00,00,9.60
2019,05,05,00,01,9.60
2019,05,05,00,02,9.60
2019,05,05,00,03,9.60
2019,05,05,00,04,9.60
2019,05,05,00,05,9.60
2019,05,05,00,06,9.60
2019,05,05,00,07,9.60
2019,05,05,00,08,9.50
2019,05,05,00,09,9.50
2019,05,05,00,10,9.50
2019,05,05,00,11,9.50
2019,05,05,00,12,9.40
2019,05,05,00,13,9.40
2019,05,05,00,14,9.40
2019,05,05,00,15,9.40
2019,05,05,00,16,9.40
2019,05,05,00,17,9.40
2019,05,05,00,18,9.40
2019,05,05,00,19,9.30
2019,05,05,00,20,9.30
2019,05,05,00,21,9.30
2019,05,05,00,22,9.30
2019,05,05,00,23,9.30
2019,05,05,00,24,9.20
2019,05,05,00,25,9.20
2019,05,05,00,26,9.20
2019,05,05,00,27,9.20
2019,05,05,00,28,9.20
2019,05,05,00,29,9.20
2019,05,05,00,30,9.20
2019,05,05,00,31,9.20
2019,05,05,00,32,9.20
2019,05,05,00,33,9.20
2019,05,05,00,34,9.10
2019,05,05,00,35,9.10
2019,05,05,00,36,9.10
2019,05,05,00,37,9.00
2019,05,05,00,38,9.00
2019,05,05,00,39,8.90
2019,05,05,00,40,8.90
2019,05,05,00,41,8.90
2019,05,05,00,42,8.90
2019,05,05,00,43,8.90
2019,05,05,00,44,8.90
2019,05,05,00,45,8.90
2019,05,05,00,46,8.90
2019,05,05,00,47,8.90
2019,05,05,00,48,8.90
2019,05,05,00,49,8.90
2019,05,05,00,50,8.90
2019,05,05,00,51,8.90
2019,05,05,00,52,8.90
2019,05,05,00,53,8.90
2019,05,05,00,54,8.90
2019,05,05,00,55,8.90
2019,05,05,00,56,8.90
2019,05,05,00,57,8.90
2019,05,05,00,58,8.90
2019,05,05,00,59,8.80
2019,05,05,01,00,8.80
2019,05,05,01,01,8.80
2019,05,05,01,02,8.80
2019,05,05,01,03,8.80
2019,05,05,01,04,8.70
2019,05,05,01,05,8.70
2019,05,05,01,06,8.70
2019,05,05,01,07,8.70
2019,05,05,01,08,8.70
2019,05,05,01,09,8.70
2019,05,05,01,10,8.70
2019,05,05,01,11,8.70
2019,05,05,01,12,8.70
2019,05,05,01,13,8.70
2019,05,05,01,14,8.70
2019,05,05,01,15,8.70
2019,05,05,01,16,8.60
2019,05,05,01,17,8.60
2019,05,05,01,18,8.60
2019,05,05,01,19,8.60
2019,05,05,01,20,8.60
2019,05,05,01,21,8.60
2019,05,05,01,22,8.50
2019,05,05,01,23,8.50
2019,05,05,01,24,8.50
2019,05,05,01,25,8.50
2019,05,05,01,26,8.50
2019,05,05,01,27,8.50
2019,05,05,01,28,8.50
2019,05,05,01,29,8.50
2019,05,05,01,30,8.40
2019,05,05,01,31,8.40
2019,05,05,01,32,8.30
2019,05,05,01,33,8.30
2019,05,05,01,34,8.30
2019,05,05,01,35,8.20
2019,05,05,01,36,8.20
2019,05,05,01,37,8.20
2019,05,05,01,38,8.20
2019,05,05,01,39,8.20
2019,05,05,01,40,8.10
2019,05,05,01,41,8.10
2019,05,05,01,42,8.10
2019,05,05,01,43,8.10
2019,05,05,01,44,8.00
2019,05,05,01,45,8.00
2019,05,05,01,46,7.90
2019,05,05,01,47,7.90
2019,05,05,01,48,7.90
2019,05,05,01,49,7.90
2019,05,05,01,50,7.90
2019,05,05,01,51,7.90
2019,05,05,01,52,7.90
2019,05,05,01,53,7.80
2019,05,05,01,54,7.80
2019,05,05,01,55,7.80
2019,05,05,01,56,7.90
2019,05,05,01,57,7.90
2019,05,05,01,58,7.90
2019,05,05,01,59,7.90
2019,05,05,02,00,7.90
2019,05,05,02,01,7.90
2019,05,05,02,02,7.90
2019,05,05,02,03,7.90
2019,05,05,02,04,7.90
2019,05,05,02,05,7.90
2019,05,05,02,06,7.90
2019,05,05,02,07,7.90
2019,05,05,02,08,7.90
2019,05,05,02,09,7.90
2019,05,05,02,10,7.90
2019,05,05,02,11,7.80
2019,05,05,02,12,7.80
2019,05,05,02,13,7.80
2019,05,05,02,14,7.80
2019,05,05,02,15,7.80
2019,05,05,02,16,7.80
2019,05,05,02,17,7.80
2019,05,05,02,18,7.80
2019,05,05,02,19,7.80
2019,05,05,02,20,7.80
2019,05,05,02,21,7.80
2019,05,05,02,22,7.80
2019,05,05,02,23,7.80
2019,05,05,02,24,7.80
2019,05,05,02,25,7.70
2019,05,05,02,26,7.70
2019,05,05,02,27,7.70
2019,05,05,02,28,7.70
2019,05,05,02,29,7.70
2019,05,05,02,30,7.70
2019,05,05,02,31,7.70
2019,05,05,02,32,7.70
2019,05,05,02,33,7.70
2019,05,05,02,34,7.60
2019,05,05,02,35,7.60
2019,05,05,02,36,7.60
2019,05,05,02,37,7.60
2019,05,05,02,38,7.60
2019,05,05,02,39,7.60
2019,05,05,02,40,7.60
2019,05,05,02,41,7.60
2019,05,05,02,42,7.60
2019,05,05,02,43,7.70
2019,05,05,02,44,7.70
2019,05,05,02,45,7.70
2019,05,05,02,46,7.70
2019,05,05,02,47,7.70
2019,05,05,02,48,7.70
2019,05,05,02,49,7.70
2019,05,05,02,50,7.70
2019,05,05,02,51,7.70
2019,05,05,02,52,7.70
2019,05,05,02,53,7.70
2019,05,05,02,54,7.70
2019,05,05,02,55,7.60
2019,05,05,02,56,7.60
2019,05,05,02,57,7.60
2019,05,05,02,58,7.60
2019,05,05,02,59,7.60
2019,05,05,03,00,7.60
2019,05,05,03,01,7.60
2019,05,05,03,02,7.50
2019,05,05,03,03,7.50
2019,05,05,03,04,7.50
2019,05,05,03,05,7.50
2019,05,05,03,06,7.50
2019,05,05,03,07,7.40
2019,05,05,03,08,7.40
2019,05,05,03,09,7.40
2019,05,05,03,10,7.40
2019,05,05,03,11,7.40
2019,05,05,03,12,7.40
2019,05,05,03,13,7.40
2019,05,05,03,14,7.40
2019,05,05,03,15,7.40
2019,05,05,03,16,7.40
2019,05,05,03,17,7.40
2019,05,05,03,18,7.40
2019,05,05,03,19,7.30
2019,05,05,03,20,7.30
2019,05,05,03,21,7.30
2019,05,05,03,22,7.30
2019,05,05,03,23,7.30
2019,05,05,03,24,7.30
2019,05,05,03,25,7.30
2019,05,05,03,26,7.30
2019,05,05,03,27,7.30
2019,05,05,03,28,7.30
2019,05,05,03,29,7.30
2019,05,05,03,30,7.30
2019,05,05,03,31,7.30
2019,05,05,03,32,7.30
2019,05,05,03,33,7.30
2019,05,05,03,34,7.30
2019,05,05,03,35,7.30
2019,05,05,03,36,7.30
2019,05,05,03,37,7.30
2019,05,05,03,38,7.20
2019,05,05,03,39,7.20
2019,05,05,03,40,7.20
2019,05,05,03,41,7.20
2019,05,05,03,42,7.20
2019,05,05,03,43,7.20
2019,05,05,03,44,7.20
2019,05,05,03,45,7.20
2019,05,05,03,46,7.20
2019,05,05,03,47,7.20
2019,05,05,03,48,7.20
2019,05,05,03,49,7.20
2019,05,05,03,50,7.20
2019,05,05,03,51,7.20
2019,05,05,03,52,7.20
2019,05,05,03,53,7.20
2019,05,05,03,54,7.20
2019,05,05,03,55,7.20
2019,05,05,03,56,7.20
2019,05,05,03,57,7.20
2019,05,05,03,58,7.20
2019,05,05,03,59,7.20
2019,05,05,04,00,7.20
2019,05,05,04,01,7.20
2019,05,05,04,02,7.10
2019,05,05,04,03,7.10
2019,05,05,04,04,7.10
2019,05,05,04,05,7.00
2019,05,05,04,06,7.00
2019,05,05,04,07,6.90
2019,05,05,04,08,6.90
2019,05,05,04,09,6.90
2019,05,05,04,10,6.90
2019,05,05,04,11,6.90
2019,05,05,04,12,6.90
2019,05,05,04,13,6.90
2019,05,05,04,14,6.90
2019,05,05,04,15,6.90
2019,05,05,04,16,6.90
2019,05,05,04,17,6.90
2019,05,05,04,18,6.90
2019,05,05,04,19,6.90
2019,05,05,04,20,6.90
2019,05,05,04,21,6.90
2019,05,05,04,22,6.90
2019,05,05,04,23,6.90
2019,05,05,04,24,6.90
2019,05,05,04,25,6.90
2019,05,05,04,26,6.90
2019,05,05,04,27,6.90
2019,05,05,04,28,6.90
2019,05,05,04,29,6.90
2019,05,05,04,30,6.90
2019,05,05,04,31,6.90
2019,05,05,04,32,6.90
2019,05,05,04,33,6.90
2019,05,05,04,34,6.90
2019,05,05,04,35,6.90
2019,05,05,04,36,6.90
2019,05,05,04,37,6.90
2019,05,05,04,38,6.90
2019,05,05,04,39,6.90
2019,05,05,04,40,6.90
2019,05,05,04,41,6.90
2019,05,05,04,42,6.90
2019,05,05,04,43,6.90
2019,05,05,04,44,6.90
2019,05,05,04,45,6.90
2019,05,05,04,46,7.00
2019,05,05,04,47,6.90
2019,05,05,04,48,7.00
2019,05,05,04,49,6.90
2019,05,05,04,50,6.90
2019,05,05,04,51,6.90
2019,05,05,04,52,6.90
2019,05,05,04,53,6.90
2019,05,05,04,54,6.90
2019,05,05,04,55,6.90
2019,05,05,04,56,6.90
2019,05,05,04,57,6.90
2019,05,05,04,58,6.90
2019,05,05,04,59,6.90
2019,05,05,05,00,6.90
2019,05,05,05,01,6.90
2019,05,05,05,02,6.90
2019,05,05,05,03,6.90
2019,05,05,05,04,6.90
2019,05,05,05,05,6.90
2019,05,05,05,06,6.90
2019,05,05,05,07,6.90
2019,05,05,05,08,6.80
2019,05,05,05,09,6.80
2019,05,05,05,10,6.80
2019,05,05,05,11,6.80
2019,05,05,05,12,6.80
2019,05,05,05,13,6.80
2019,05,05,05,14,6.70
2019,05,05,05,15,6.70
2019,05,05,05,16,6.70
2019,05,05,05,17,6.70
2019,05,05,05,18,6.70
2019,05,05,05,19,6.70
2019,05,05,05,20,6.70
2019,05,05,05,21,6.70
2019,05,05,05,22,6.70
2019,05,05,05,23,6.70
2019,05,05,05,24,6.70
2019,05,05,05,25,6.70
2019,05,05,05,26,6.70
2019,05,05,05,27,6.70
2019,05,05,05,28,6.70
2019,05,05,05,29,6.70
2019,05,05,05,30,6.70
2019,05,05,05,31,6.70
2019,05,05,05,32,6.60
2019,05,05,05,33,6.60
2019,05,05,05,34,6.60
2019,05,05,05,35,6.60
2019,05,05,05,36,6.60
2019,05,05,05,37,6.60
2019,05,05,05,38,6.50
2019,05,05,05,39,6.50
2019,05,05,05,40,6.50
2019,05,05,05,41,6.60
2019,05,05,08,44,13.10
2019,05,05,08,45,13.10
2019,05,05,08,46,13.10
2019,05,05,08,47,13.10
2019,05,05,08,48,13.10
2019,05,05,08,49,13.10
2019,05,05,08,50,13.10
2019,05,05,08,51,13.20
2019,05,05,08,52,13.20
2019,05,05,08,53,13.20
2019,05,05,08,54,13.30
2019,05,05,08,55,13.30
2019,05,05,08,56,13.30
2019,05,05,08,57,13.40
2019,05,05,08,58,13.50
2019,05,05,08,59,13.60
2019,05,05,09,00,13.60
2019,05,05,09,01,13.70
2019,05,05,09,02,13.80
2019,05,05,09,03,13.80
2019,05,05,09,04,13.90
2019,05,05,09,05,14.00
2019,05,05,09,06,14.00
2019,05,05,09,07,14.00
2019,05,05,09,08,14.00
2019,05,05,09,09,14.00
2019,05,05,09,10,14.10
2019,05,05,09,11,14.10
2019,05,05,09,12,14.20
2019,05,05,09,13,14.30
2019,05,05,09,14,14.40
2019,05,05,09,15,14.50
2019,05,05,09,16,14.60
2019,05,05,09,17,14.70
2019,05,05,09,18,14.80
2019,05,05,09,19,14.80
2019,05,05,09,20,14.80
2019,05,05,09,21,14.80
2019,05,05,09,22,14.80
2019,05,05,09,23,14.80
2019,05,05,09,24,14.80
2019,05,05,09,25,14.80
2019,05,05,09,26,14.90
2019,05,05,09,27,14.90
2019,05,05,09,28,14.90
2019,05,05,09,29,15.00
2019,05,05,09,30,15.00
2019,05,05,09,31,15.00
2019,05,05,09,32,15.00
2019,05,05,09,33,15.00
2019,05,05,09,34,15.00
2019,05,05,09,35,15.00
2019,05,05,09,36,15.10
2019,05,05,09,37,15.20
2019,05,05,09,38,15.20
2019,05,05,09,39,15.20
2019,05,05,09,40,15.20
2019,05,05,09,41,15.30
2019,05,05,09,42,15.20
2019,05,05,09,43,15.20
2019,05,05,09,44,15.30
2019,05,05,09,45,15.30
2019,05,05,09,46,15.30
2019,05,05,09,47,15.30
2019,05,05,09,48,15.30
2019,05,05,09,49,15.40
2019,05,05,09,50,15.40
2019,05,05,09,51,15.40
2019,05,05,09,52,15.40
2019,05,05,09,53,15.40
2019,05,05,09,54,15.50
2019,05,05,09,55,15.50
2019,05,05,09,56,15.60
2019,05,05,09,57,15.70
2019,05,05,09,58,15.80
2019,05,05,09,59,15.90
2019,05,05,10,00,16.00
2019,05,05,10,01,16.10
2019,05,05,10,02,16.10
2019,05,05,10,03,16.10
2019,05,05,10,04,16.10
2019,05,05,10,05,16.10
2019,05,05,10,06,16.20
2019,05,05,10,07,16.20
2019,05,05,10,08,16.20
2019,05,05,10,09,16.20
2019,05,05,10,10,16.10
2019,05,05,10,11,16.10
2019,05,05,10,12,16.20
2019,05,05,10,13,16.20
2019,05,05,10,14,16.20
2019,05,05,10,15,16.10
2019,05,05,10,16,16.10
2019,05,05,10,17,16.20
2019,05,05,10,18,16.20
2019,05,05,10,19,16.30
2019,05,05,10,20,16.30
2019,05,05,10,21,16.30
2019,05,05,10,22,16.30
2019,05,05,10,23,16.30
2019,05,05,10,24,16.30
2019,05,05,10,25,16.30
2019,05,05,10,26,16.30
2019,05,05,10,27,16.30
2019,05,05,10,28,16.30
2019,05,05,10,29,16.30
2019,05,05,10,30,16.30
2019,05,05,10,31,16.30
2019,05,05,10,32,16.30
2019,05,05,10,33,16.30
2019,05,05,10,34,16.30
2019,05,05,10,35,16.40
2019,05,05,10,36,16.30
2019,05,05,10,37,16.40
2019,05,05,10,38,16.30
2019,05,05,10,39,16.30
2019,05,05,10,40,16.30
2019,05,05,10,41,16.30
2019,05,05,10,42,16.30
2019,05,05,10,43,16.40
2019,05,05,10,44,16.50
2019,05,05,10,45,16.60
2019,05,05,10,46,16.60
2019,05,05,10,47,16.60
2019,05,05,10,48,16.60
2019,05,05,10,49,16.60
2019,05,05,10,50,16.70
2019,05,05,10,51,16.70
2019,05,05,10,52,16.70
2019,05,05,10,53,16.70
2019,05,05,10,54,16.80
2019,05,05,10,55,16.90
2019,05,05,10,56,16.90
2019,05,05,10,57,16.90
2019,05,05,10,58,17.00
2019,05,05,10,59,17.00
2019,05,05,11,00,17.10
2019,05,05,11,01,17.10
2019,05,05,11,02,17.10
2019,05,05,11,03,17.20
2019,05,05,11,04,17.20
2019,05,05,11,05,17.30
2019,05,05,11,06,17.30
2019,05,05,11,07,17.30
2019,05,05,11,08,17.30
2019,05,05,11,09,17.30
2019,05,05,11,10,17.30
2019,05,05,11,11,17.20
2019,05,05,11,12,17.10
2019,05,05,11,13,17.10
2019,05,05,11,14,17.10
2019,05,05,11,15,17.20
2019,05,05,11,16,17.30
2019,05,05,11,17,17.40
2019,05,05,11,18,17.40
2019,05,05,11,19,17.50
2019,05,05,11,20,17.60
2019,05,05,11,21,17.70
2019,05,05,11,22,17.70
2019,05,05,11,23,17.80
2019,05,05,11,24,17.90
2019,05,05,11,25,18.00
2019,05,05,11,26,18.00
2019,05,05,11,27,18.10
2019,05,05,11,28,18.20
2019,05,05,11,29,18.20
2019,05,05,11,30,18.20
2019,05,05,11,31,18.30
2019,05,05,11,32,18.30
2019,05,05,11,33,18.30
2019,05,05,11,34,18.20
2019,05,05,11,35,18.20
2019,05,05,11,36,18.20
2019,05,05,11,37,18.20
2019,05,05,11,38,18.30
2019,05,05,11,39,18.30
2019,05,05,11,40,18.40
2019,05,05,11,41,18.40
2019,05,05,11,42,18.50
2019,05,05,11,43,18.40
2019,05,05,11,44,18.50
2019,05,05,11,45,18.50
2019,05,05,11,46,18.50
2019,05,05,11,47,18.60
2019,05,05,11,48,18.60
2019,05,05,11,49,18.60
2019,05,05,11,50,18.60
2019,05,05,11,51,18.70
2019,05,05,11,52,18.80
2019,05,05,11,53,18.80
2019,05,05,11,54,18.80
2019,05,05,11,55,18.80
2019,05,05,11,56,18.80
2019,05,05,11,57,18.80
2019,05,05,11,58,18.80
2019,05,05,11,59,18.80
2019,05,05,12,00,18.70
2019,05,05,12,01,18.70
2019,05,05,12,02,18.70
2019,05,05,12,03,18.70
2019,05,05,12,04,18.70
2019,05,05,12,05,18.60
2019,05,05,12,06,18.60
2019,05,05,12,07,18.50
2019,05,05,12,08,18.40
2019,05,05,12,09,18.40
2019,05,05,12,10,18.40
2019,05,05,12,11,18.40
2019,05,05,12,12,18.30
2019,05,05,12,13,18.30
2019,05,05,12,14,18.30
2019,05,05,12,15,18.40
2019,05,05,12,16,18.40
2019,05,05,12,17,18.40
2019,05,05,12,18,18.40
2019,05,05,12,19,18.40
2019,05,05,12,20,18.40
2019,05,05,12,21,18.40
2019,05,05,12,22,18.50
2019,05,05,12,23,18.50
2019,05,05,12,24,18.70
2019,05,05,12,25,18.90
2019,05,05,12,26,19.00
2019,05,05,12,27,19.10
2019,05,05,12,28,19.20
2019,05,05,12,29,19.30
2019,05,05,12,30,19.30
2019,05,05,12,31,19.40
2019,05,05,12,32,19.40
2019,05,05,12,33,19.40
2019,05,05,12,34,19.30
2019,05,05,12,35,19.30
2019,05,05,12,36,19.10
2019,05,05,12,37,19.10
2019,05,05,12,38,19.10
2019,05,05,12,39,19.10
2019,05,05,12,40,19.10
2019,05,05,12,41,19.10
2019,05,05,12,42,19.10
2019,05,05,12,43,19.10
2019,05,05,12,44,19.00
2019,05,05,12,45,18.90
2019,05,05,12,46,18.90
2019,05,05,12,47,19.00
2019,05,05,12,48,19.00
2019,05,05,12,49,19.10
2019,05,05,12,50,19.20
2019,05,05,12,51,19.30
2019,05,05,12,52,19.50
2019,05,05,12,53,19.60
2019,05,05,12,54,19.70
2019,05,05,12,55,19.70
2019,05,05,12,56,19.70
2019,05,05,12,57,19.80
2019,05,05,12,58,19.80
2019,05,05,12,59,19.80
2019,05,05,13,00,19.90
2019,05,05,13,01,19.90
2019,05,05,13,02,19.90
2019,05,05,13,03,19.80
2019,05,05,13,04,19.70
2019,05,05,13,05,19.70
2019,05,05,13,06,19.60
2019,05,05,13,07,19.50
2019,05,05,13,08,19.50
2019,05,05,13,09,19.50
2019,05,05,13,10,19.60
2019,05,05,13,11,19.60
2019,05,05,13,12,19.60
2019,05,05,13,13,19.60
2019,05,05,13,14,19.60
2019,05,05,13,15,19.70
2019,05,05,13,16,19.70
2019,05,05,13,17,19.70
2019,05,05,13,18,19.70
2019,05,05,13,19,19.70
2019,05,05,13,20,19.70
2019,05,05,13,21,19.70
2019,05,05,13,22,19.70
2019,05,05,13,23,19.50
2019,05,05,13,24,19.30
2019,05,05,13,25,19.10
2019,05,05,13,26,19.00
2019,05,05,13,27,19.00
2019,05,05,13,28,19.10
2019,05,05,13,29,19.20
2019,05,05,13,30,19.30
2019,05,05,13,31,19.30
2019,05,05,13,32,19.40
2019,05,05,13,33,19.40
2019,05,05,13,34,19.40
2019,05,05,13,35,19.40
2019,05,05,13,36,19.40
2019,05,05,13,37,19.40
2019,05,05,13,38,19.40
2019,05,05,13,39,19.20
2019,05,05,13,40,19.20
2019,05,05,13,41,19.10
2019,05,05,13,42,19.10
2019,05,05,13,43,19.10
2019,05,05,13,44,19.10
2019,05,05,13,45,19.20
2019,05,05,13,46,19.30
2019,05,05,13,47,19.30
2019,05,05,13,48,19.30
2019,05,05,13,49,19.30
2019,05,05,13,50,19.40
2019,05,05,13,51,19.50
2019,05,05,13,52,19.50
2019,05,05,13,53,19.60
2019,05,05,13,54,19.60
2019,05,05,13,55,19.80
2019,05,05,13,56,19.90
2019,05,05,13,57,20.00
2019,05,05,13,58,20.10
2019,05,05,13,59,20.10
2019,05,05,14,00,20.00
2019,05,05,14,01,20.00
2019,05,05,14,02,20.00
2019,05,05,14,03,20.00
2019,05,05,14,04,20.10
2019,05,05,14,05,20.10
2019,05,05,14,06,20.10
2019,05,05,14,07,20.20
2019,05,05,14,08,20.20
2019,05,05,14,09,20.40
2019,05,05,14,10,20.50
2019,05,05,14,11,20.50
2019,05,05,14,12,20.50
2019,05,05,14,13,20.40
2019,05,05,14,14,20.40
2019,05,05,14,15,20.40
2019,05,05,14,16,20.50
2019,05,05,14,17,20.60
2019,05,05,14,18,20.60
2019,05,05,14,19,20.70
2019,05,05,14,20,20.70
2019,05,05,14,21,20.80
2019,05,05,14,22,20.90
2019,05,05,14,23,21.00
2019,05,05,14,24,21.00
2019,05,05,14,25,20.90
2019,05,05,14,26,20.90
2019,05,05,14,27,21.00
2019,05,05,14,28,21.10
2019,05,05,14,29,21.20
2019,05,05,14,30,21.30
2019,05,05,14,31,21.30
2019,05,05,14,32,21.30
2019,05,05,14,33,21.30
2019,05,05,14,34,21.30
2019,05,05,14,35,21.10
2019,05,05,14,36,21.00
2019,05,05,14,37,20.90
2019,05,05,14,38,20.90
2019,05,05,14,39,20.90
2019,05,05,14,40,20.90
2019,05,05,14,41,20.80
2019,05,05,14,42,20.80
2019,05,05,14,43,20.60
2019,05,05,14,44,20.40
2019,05,05,14,45,20.20
2019,05,05,14,46,20.00
2019,05,05,14,47,19.80
2019,05,05,14,48,19.80
2019,05,05,14,49,19.60
2019,05,05,14,50,19.30
2019,05,05,14,51,19.20
2019,05,05,14,52,19.20
2019,05,05,14,53,19.20
2019,05,05,14,54,19.10
2019,05,05,14,55,19.10
2019,05,05,14,56,19.10
2019,05,05,14,57,19.10
2019,05,05,14,58,19.10
2019,05,05,14,59,19.10
2019,05,05,15,00,19.10
2019,05,05,15,01,19.30
2019,05,05,15,02,19.40
2019,05,05,15,03,19.50
2019,05,05,15,04,19.50
2019,05,05,15,05,19.50
2019,05,05,15,06,19.50
2019,05,05,15,07,19.40
2019,05,05,15,08,19.50
2019,05,05,15,09,19.50
2019,05,05,15,10,19.40
2019,05,05,15,11,19.40
2019,05,05,15,12,19.30
2019,05,05,15,13,19.30
2019,05,05,15,14,19.30
2019,05,05,15,15,19.30
2019,05,05,15,16,19.40
2019,05,05,15,17,19.50
2019,05,05,15,18,19.50
2019,05,05,15,19,19.50
2019,05,05,15,20,19.60
2019,05,05,15,21,19.80
2019,05,05,15,22,19.90
2019,05,05,15,23,20.00
2019,05,05,15,24,19.90
2019,05,05,15,25,19.80
2019,05,05,15,26,19.70
2019,05,05,15,27,19.50
2019,05,05,15,28,19.30
2019,05,05,15,29,19.30
2019,05,05,15,30,19.30
2019,05,05,15,31,19.30
2019,05,05,15,32,19.40
2019,05,05,15,33,19.40
2019,05,05,15,34,19.40
2019,05,05,15,35,19.40
2019,05,05,15,36,19.40
2019,05,05,15,37,19.60
2019,05,05,15,38,19.60
2019,05,05,15,39,19.70
2019,05,05,15,40,19.80
2019,05,05,15,41,19.80
2019,05,05,15,42,19.80
2019,05,05,15,43,19.80
2019,05,05,15,44,19.80
2019,05,05,15,45,19.80
2019,05,05,15,46,19.70
2019,05,05,15,47,19.60
2019,05,05,15,48,19.50
2019,05,05,15,49,19.50
2019,05,05,15,50,19.60
2019,05,05,15,51,19.50
2019,05,05,15,52,19.60
2019,05,05,15,53,19.70
2019,05,05,15,54,19.70
2019,05,05,15,55,19.70
2019,05,05,15,56,19.80
2019,05,05,15,57,19.80
2019,05,05,15,58,19.80
2019,05,05,15,59,19.80
2019,05,05,16,00,19.80
2019,05,05,16,01,19.80
2019,05,05,16,02,19.80
2019,05,05,16,03,19.80
2019,05,05,16,04,19.80
2019,05,05,16,05,19.80
2019,05,05,16,06,19.80
2019,05,05,16,07,19.80
2019,05,05,16,08,19.80
2019,05,05,16,09,19.80
2019,05,05,16,10,19.80
2019,05,05,16,11,19.90
2019,05,05,16,12,19.90
2019,05,05,16,13,19.90
2019,05,05,16,14,19.90
2019,05,05,16,15,19.90
2019,05,05,16,16,20.00
2019,05,05,16,17,20.10
2019,05,05,16,18,20.10
2019,05,05,16,19,20.20
2019,05,05,16,20,20.10
2019,05,05,16,21,20.00
2019,05,05,16,22,19.90
2019,05,05,16,23,19.90
2019,05,05,16,24,19.90
2019,05,05,16,25,19.90
2019,05,05,16,26,19.90
2019,05,05,16,27,19.80
2019,05,05,16,28,19.80
2019,05,05,16,29,19.80
2019,05,05,16,30,19.80
2019,05,05,16,31,19.80
2019,05,05,16,32,19.90
2019,05,05,16,33,20.00
2019,05,05,16,34,20.10
2019,05,05,16,35,20.10
2019,05,05,16,36,20.10
2019,05,05,16,37,20.00
2019,05,05,16,38,19.80
2019,05,05,16,39,19.80
2019,05,05,16,40,19.70
2019,05,05,16,41,19.70
2019,05,05,16,42,19.80
2019,05,05,16,43,19.80
2019,05,05,16,44,19.90
2019,05,05,16,45,20.00
2019,05,05,16,46,20.00
2019,05,05,16,47,20.00
2019,05,05,16,48,20.00
2019,05,05,16,49,20.00
2019,05,05,16,50,20.10
2019,05,05,16,51,20.10
2019,05,05,16,52,20.10
2019,05,05,16,53,20.20
2019,05,05,16,54,20.20
2019,05,05,16,55,20.20
2019,05,05,16,56,20.30
2019,05,05,16,57,20.30
2019,05,05,16,58,20.30
2019,05,05,16,59,20.10
2019,05,05,17,00,20.10
2019,05,05,17,01,20.10
2019,05,05,17,02,20.10
2019,05,05,17,03,20.10
2019,05,05,17,04,20.20
2019,05,05,17,05,20.20
2019,05,05,17,06,20.10
2019,05,05,17,07,20.10
2019,05,05,17,08,20.10
2019,05,05,17,09,20.10
2019,05,05,17,10,20.10
2019,05,05,17,11,20.20
2019,05,05,17,12,20.30
2019,05,05,17,13,20.30
2019,05,05,17,14,20.40
2019,05,05,17,15,20.40
2019,05,05,17,16,20.40
2019,05,05,17,17,20.50
2019,05,05,17,18,20.60
2019,05,05,17,19,20.60
2019,05,05,17,20,20.60
2019,05,05,17,21,20.60
2019,05,05,17,22,20.60
2019,05,05,17,23,20.60
2019,05,05,17,24,20.70
2019,05,05,17,25,20.70
2019,05,05,17,26,20.60
2019,05,05,17,27,20.60
2019,05,05,17,28,20.60
2019,05,05,17,29,20.60
2019,05,05,17,30,20.60
2019,05,05,17,31,20.70
2019,05,05,17,32,20.70
2019,05,05,17,33,20.70
2019,05,05,17,34,20.80
2019,05,05,17,35,20.80
2019,05,05,17,36,20.80
2019,05,05,17,37,20.90
2019,05,05,17,38,21.00
2019,05,05,17,39,21.00
2019,05,05,17,40,21.10
2019,05,05,17,41,21.10
2019,05,05,17,42,21.10
2019,05,05,17,43,21.00
2019,05,05,17,44,20.90
2019,05,05,17,45,20.80
2019,05,05,17,46,20.80
2019,05,05,17,47,20.70
2019,05,05,17,48,20.70
2019,05,05,17,49,20.70
2019,05,05,17,50,20.80
2019,05,05,17,51,20.80
2019,05,05,17,52,20.90
2019,05,05,17,53,21.00
2019,05,05,17,54,21.00
2019,05,05,17,55,21.00
2019,05,05,17,56,20.90
2019,05,05,17,57,21.00
2019,05,05,17,58,21.10
2019,05,05,17,59,21.10
2019,05,05,18,00,21.00
2019,05,05,18,01,21.00
2019,05,05,18,02,20.90
2019,05,05,18,03,20.90
2019,05,05,18,04,20.80
2019,05,05,18,05,20.80
2019,05,05,18,06,20.80
2019,05,05,18,07,20.70
2019,05,05,18,08,20.60
2019,05,05,18,09,20.60
2019,05,05,18,10,20.60
2019,05,05,18,11,20.60
2019,05,05,18,12,20.60
2019,05,05,18,13,20.50
2019,05,05,18,14,20.40
2019,05,05,18,15,20.40
2019,05,05,18,16,20.30
2019,05,05,18,17,20.30
2019,05,05,18,18,20.40
2019,05,05,18,19,20.40
2019,05,05,18,20,20.40
2019,05,05,18,21,20.40
2019,05,05,18,22,20.30
2019,05,05,18,23,20.30
2019,05,05,18,24,20.30
2019,05,05,18,25,20.30
2019,05,05,18,26,20.30
2019,05,05,18,27,20.30
2019,05,05,18,28,20.20
2019,05,05,18,29,20.10
2019,05,05,18,30,20.00
2019,05,05,18,31,19.90
2019,05,05,18,32,19.90
2019,05,05,18,33,19.90
2019,05,05,18,34,19.80
2019,05,05,18,35,19.80
2019,05,05,18,36,19.70
2019,05,05,18,37,19.70
2019,05,05,18,38,19.60
2019,05,05,18,39,19.60
2019,05,05,18,40,19.60
2019,05,05,18,41,19.60
2019,05,05,18,42,19.60
2019,05,05,18,43,19.60
2019,05,05,18,44,19.60
2019,05,05,18,45,19.60
2019,05,05,18,46,19.60
2019,05,05,18,47,19.60
2019,05,05,18,48,19.60
2019,05,05,18,49,19.60
2019,05,05,18,50,19.60
2019,05,05,18,51,19.60
2019,05,05,18,52,19.60
2019,05,05,18,53,19.60
2019,05,05,18,54,19.60
2019,05,05,18,55,19.60
2019,05,05,18,56,19.60
2019,05,05,18,57,19.50
2019,05,05,18,58,19.50
2019,05,05,18,59,19.40
2019,05,05,19,00,19.40
2019,05,05,19,01,19.40
2019,05,05,19,02,19.40
2019,05,05,19,03,19.30
2019,05,05,19,04,19.30
2019,05,05,19,05,19.30
2019,05,05,19,06,19.30
2019,05,05,19,07,19.20
2019,05,05,19,08,19.20
2019,05,05,19,09,19.20
2019,05,05,19,10,19.20
2019,05,05,19,11,19.10
2019,05,05,19,12,19.00
2019,05,05,19,13,18.90
2019,05,05,19,14,18.80
2019,05,05,19,15,18.80
2019,05,05,19,16,18.70
2019,05,05,19,17,18.70
2019,05,05,19,18,18.60
2019,05,05,19,19,18.60
2019,05,05,19,20,18.50
2019,05,05,19,21,18.50
2019,05,05,19,22,18.50
2019,05,05,19,23,18.50
2019,05,05,19,24,18.50
2019,05,05,19,25,18.40
2019,05,05,19,26,18.40
2019,05,05,19,27,18.40
2019,05,05,19,28,18.40
2019,05,05,19,29,18.40
2019,05,05,19,30,18.40
2019,05,05,19,31,18.40
2019,05,05,19,32,18.40
2019,05,05,19,33,18.30
2019,05,05,19,34,18.30
2019,05,05,19,35,18.30
2019,05,05,19,36,18.30
2019,05,05,19,37,18.20
2019,05,05,19,38,18.20
2019,05,05,19,39,18.20
2019,05,05,19,40,18.10
2019,05,05,19,41,18.10
2019,05,05,19,42,18.10
2019,05,05,19,43,18.00
2019,05,05,19,44,18.00
2019,05,05,19,45,17.90
2019,05,05,19,46,17.90
2019,05,05,19,47,17.90
2019,05,05,19,48,17.80
2019,05,05,19,49,17.80
2019,05,05,19,50,17.80
2019,05,05,19,51,17.80
2019,05,05,19,52,17.70
2019,05,05,19,53,17.70
2019,05,05,19,54,17.60
2019,05,05,19,55,17.60
2019,05,05,19,56,17.60
2019,05,05,19,57,17.50
2019,05,05,19,58,17.50
2019,05,05,19,59,17.40
2019,05,05,20,00,17.40
2019,05,05,20,01,17.40
2019,05,05,20,02,17.30
2019,05,05,20,03,17.30
2019,05,05,20,04,17.30
2019,05,05,20,05,17.20
2019,05,05,20,06,17.20
2019,05,05,20,07,17.20
2019,05,05,20,08,17.10
2019,05,05,20,09,17.10
2019,05,05,20,10,17.00
2019,05,05,20,11,17.00
2019,05,05,20,12,16.90
2019,05,05,20,13,16.90
2019,05,05,20,14,16.90
2019,05,05,20,15,16.80
2019,05,05,20,16,16.80
2019,05,05,20,17,16.80
2019,05,05,20,18,16.80
2019,05,05,20,19,16.70
2019,05,05,20,20,16.70
2019,05,05,20,21,16.70
2019,05,05,20,22,16.60
2019,05,05,20,23,16.60
2019,05,05,20,24,16.50
2019,05,05,20,25,16.40
2019,05,05,20,26,16.40
2019,05,05,20,27,16.30
2019,05,05,20,28,16.20
2019,05,05,20,29,16.20
2019,05,05,20,30,16.10
2019,05,05,20,31,16.00
2019,05,05,20,32,16.00
2019,05,05,20,33,15.90
2019,05,05,20,34,15.90
2019,05,05,20,35,15.80
2019,05,05,20,36,15.80